Back to catalog

NOAA 16 DEB

AliveSSO
NORAD 41245·DEBRIS·🇺🇸 United States

Launched Sep 21, 2000 from Vandenberg Space Force Base

Loading…

Next Passes (next 24 hours)

TLE

FreshSource: Space-Track

Epoch: Sep 12, 2026, 06:33 UTC

1 41245U 00055EV  26255.27331516  .00001266  00000-0  61015-3 0  9995
2 41245  98.5170 273.9810 0014347 190.0669 170.0223 14.20380594550975

Track NOAA 16 DEB in real time with AllMySat

Download on the App Store